Date String (YYYY-MM-DD hh:mm:ss) UTC,Instrument flags,Ambient pressure (hPa),Sample flow (lpm),Bypass flow (lpm),Sample temperature (°C),Ambient temperature (°C),ASC tube jacket temperature (°C),LED temperature (°C),Box temperature (°C),Sample RH (%),Span deviation,Mass concentration (μg/m³),Mass concentration (μg/m³),Mass concentration (μg/m³)
DateTimeUTC,F1_M11,P_M11,Q1_M11,Q2_M11,T1_M11,T2_M11,T3_M11,T4_M11,T5_M11,U1_M11,ZSPAN_M11,X0_M11,X2_M11,X1_M11
2021-10-18 05:00:00,,0824.2,5.01,0.00,30.1,29.0,00.0,39.2,31.7,08.2,0000.0,0005.05,0002.15,0001.37
2021-10-18 05:01:00,,0824.2,5.01,0.00,30.1,29.0,00.0,39.2,31.7,08.3,0000.0,0005.27,0002.19,0001.39
2021-10-18 05:02:00,,0824.3,4.99,0.00,30.0,29.0,00.0,39.2,31.8,08.3,0000.0,0005.67,0002.25,0001.42
2021-10-18 05:03:00,,0824.2,5.01,0.00,30.1,29.0,00.0,39.2,31.8,08.3,0000.0,0005.85,0002.36,0001.44
2021-10-18 05:04:00,,0824.2,4.99,0.00,30.1,29.1,00.0,39.2,31.8,08.3,0000.0,0007.18,0002.43,0001.47
2021-10-18 05:05:00,,0824.2,4.99,0.00,30.1,29.1,00.0,39.2,31.8,08.3,0000.0,0008.05,0002.47,0001.48
2021-10-18 05:06:00,,0824.1,5.00,0.00,30.1,29.0,00.0,39.2,31.7,08.4,0000.0,0008.30,0002.45,0001.49
2021-10-18 05:07:00,,0824.2,5.00,0.00,30.1,29.1,00.0,39.2,31.8,08.4,0000.0,0008.11,0002.40,0001.49
2021-10-18 05:08:00,,0824.1,4.99,0.00,30.1,29.1,00.0,39.2,31.7,08.4,0000.0,0008.02,0002.37,0001.47
2021-10-18 05:09:00,,0824.1,5.00,0.00,30.1,29.1,00.0,39.2,31.7,08.5,0000.0,0007.99,0002.32,0001.45
2021-10-18 05:10:00,,0824.1,5.00,0.00,30.1,29.1,00.0,39.2,31.7,08.5,0000.0,0007.97,0002.29,0001.43
2021-10-18 05:11:00,,0824.1,5.00,0.00,30.1,29.1,00.0,39.2,31.7,08.5,0000.0,0007.90,0002.26,0001.44
2021-10-18 05:12:00,,0824.1,5.01,0.00,30.1,29.0,00.0,39.2,31.8,08.6,0000.0,0008.17,0002.28,0001.47
2021-10-18 05:13:00,,0824.1,4.98,0.00,30.1,29.1,00.0,39.2,31.8,08.5,0000.0,0008.48,0002.31,0001.47
2021-10-18 05:14:00,,0824.1,5.00,0.00,30.1,29.1,00.0,39.2,31.7,08.5,0000.0,0008.39,0002.23,0001.45
2021-10-18 05:15:00,,0824.1,5.00,0.00,30.1,29.0,00.0,39.2,31.7,08.5,0000.0,0007.26,0002.14,0001.43
2021-10-18 05:16:00,,0824.1,4.99,0.00,30.1,29.0,00.0,39.2,31.7,08.5,0000.0,0006.27,0002.10,0001.42
2021-10-18 05:17:00,,0824.1,5.00,0.00,30.1,29.1,00.0,39.2,31.8,08.5,0000.0,0005.51,0002.07,0001.41
2021-10-18 05:18:00,,0824.1,5.00,0.00,30.0,29.1,00.0,39.2,31.8,08.6,0000.0,0005.25,0002.06,0001.41
2021-10-18 05:19:00,,0824.1,5.00,0.00,30.0,29.1,00.0,39.2,31.7,08.5,0000.0,0006.55,0002.05,0001.42
2021-10-18 05:20:00,,0824.1,4.99,0.00,30.1,29.1,00.0,39.2,31.7,08.5,0000.0,0006.71,0002.00,0001.41
2021-10-18 05:21:00,,0824.0,5.00,0.00,30.0,29.1,00.0,39.2,31.7,08.5,0000.0,0006.57,0001.94,0001.39
2021-10-18 05:22:00,,0824.0,5.00,0.00,30.0,29.1,00.0,39.2,31.7,08.5,0000.0,0006.51,0001.93,0001.35
2021-10-18 05:23:00,,0824.1,5.00,0.00,30.0,29.1,00.0,39.2,31.7,08.5,0000.0,0005.60,0001.79,0001.28
2021-10-18 05:24:00,,0824.0,4.99,0.00,30.0,29.1,00.0,39.2,31.7,08.5,0000.0,0004.73,0001.70,0001.24
2021-10-18 05:25:00,,0824.1,5.00,0.00,30.0,29.1,00.0,39.2,31.7,08.5,0000.0,0004.89,0001.75,0001.24
2021-10-18 05:26:00,,0824.0,4.99,0.00,30.0,29.1,00.0,39.2,31.7,08.5,0000.0,0005.03,0001.77,0001.23
2021-10-18 05:27:00,,0824.1,5.00,0.00,30.1,29.1,00.0,39.2,31.7,08.5,0000.0,0005.03,0001.77,0001.22
2021-10-18 05:28:00,,0824.0,5.00,0.00,30.0,29.1,00.0,39.2,31.7,08.5,0000.0,0005.65,0001.78,0001.20
2021-10-18 05:29:00,,0824.0,5.00,0.00,30.1,29.0,00.0,39.2,31.7,08.4,0000.0,0005.65,0001.81,0001.21
2021-10-18 05:30:00,,0824.1,4.99,0.00,30.1,29.0,00.0,39.2,31.8,08.3,0000.0,0004.26,0001.83,0001.21
2021-10-18 05:31:00,,0824.0,5.00,0.00,30.1,29.1,00.0,39.2,31.7,08.3,0000.0,0004.17,0001.91,0001.21
2021-10-18 05:32:00,,0824.0,5.00,0.00,30.0,29.1,00.0,39.2,31.7,08.3,0000.0,0004.27,0001.96,0001.21
2021-10-18 05:33:00,,0824.0,5.00,0.00,30.0,29.1,00.0,39.2,31.7,08.3,0000.0,0004.13,0001.93,0001.21
2021-10-18 05:34:00,,0824.0,5.00,0.00,30.0,29.1,00.0,39.2,31.7,08.3,0000.0,0004.28,0001.96,0001.22
2021-10-18 05:35:00,,0824.0,5.01,0.00,30.0,29.1,00.0,39.2,31.8,08.3,0000.0,0005.33,0001.94,0001.21
2021-10-18 05:36:00,,0824.0,5.00,0.00,30.0,29.1,00.0,39.2,31.7,08.3,0000.0,0006.81,0001.91,0001.20
2021-10-18 05:37:00,,0823.9,5.01,0.00,30.1,29.1,00.0,39.2,31.7,08.3,0000.0,0007.02,0001.89,0001.19
2021-10-18 05:38:00,,0823.9,5.00,0.00,30.1,29.1,00.0,39.2,31.7,08.3,0000.0,0007.01,0001.89,0001.19
2021-10-18 05:39:00,,0824.0,4.99,0.00,30.1,29.1,00.0,39.2,31.8,08.3,0000.0,0006.28,0001.86,0001.20
2021-10-18 05:40:00,,0824.0,5.01,0.00,30.1,29.1,00.0,39.2,31.8,08.3,0000.0,0006.41,0001.89,0001.19
2021-10-18 05:41:00,,0823.9,5.00,0.00,30.1,29.1,00.0,39.2,31.7,08.3,0000.0,0006.53,0001.89,0001.20
2021-10-18 05:42:00,,0823.9,5.00,0.00,30.1,29.1,00.0,39.2,31.8,08.3,0000.0,0006.78,0001.92,0001.20
2021-10-18 05:43:00,,0823.9,5.01,0.00,30.1,29.1,00.0,39.2,31.7,08.3,0000.0,0007.10,0001.92,0001.21
2021-10-18 05:44:00,,0823.9,5.01,0.00,30.1,29.1,00.0,39.2,31.8,08.3,0000.0,0007.45,0001.93,0001.23
2021-10-18 05:45:00,,0823.9,5.00,0.00,30.1,29.1,00.0,39.2,31.8,08.3,0000.0,0007.57,0001.93,0001.22
2021-10-18 05:46:00,,0823.9,5.01,0.00,30.1,29.1,00.0,39.2,31.7,08.4,0000.0,0006.70,0002.00,0001.27
2021-10-18 05:47:00,,0823.9,5.00,0.00,30.1,29.0,00.0,39.2,31.7,08.5,0000.0,0005.31,0002.12,0001.37
2021-10-18 05:48:00,,0823.9,4.99,0.00,30.1,29.0,00.0,39.2,31.7,08.5,0000.0,0006.34,0002.26,0001.45
2021-10-18 05:49:00,,0823.9,5.00,0.00,30.0,29.0,00.0,39.2,31.7,08.4,0000.0,0008.21,0002.34,0001.51
2021-10-18 05:50:00,,0823.9,5.00,0.00,30.0,29.0,00.0,39.2,31.7,08.5,0000.0,0008.40,0002.43,0001.57
2021-10-18 05:51:00,,0823.9,5.01,0.00,30.0,29.0,00.0,39.2,31.7,08.4,0000.0,0008.41,0002.49,0001.63
2021-10-18 05:52:00,,0823.9,5.00,0.00,30.0,29.0,00.0,39.2,31.7,08.5,0000.0,0008.56,0002.60,0001.70
2021-10-18 05:53:00,,0823.9,5.00,0.00,30.0,29.0,00.0,39.2,31.7,08.5,0000.0,0008.46,0002.62,0001.76
2021-10-18 05:54:00,,0823.9,5.01,0.00,30.0,29.0,00.0,39.2,31.7,08.4,0000.0,0008.75,0002.62,0001.79
2021-10-18 05:55:00,,0823.9,5.00,0.00,30.0,29.0,00.0,39.2,31.7,08.4,0000.0,0008.55,0002.58,0001.77
2021-10-18 05:56:00,,0823.9,5.00,0.00,30.0,29.0,00.0,39.2,31.7,08.4,0000.0,0008.37,0002.56,0001.77
2021-10-18 05:57:00,,0823.9,5.00,0.00,30.0,29.0,00.0,39.2,31.7,08.5,0000.0,0008.24,0002.48,0001.73
2021-10-18 05:58:00,,0823.8,5.00,0.00,30.0,29.0,00.0,39.2,31.7,08.5,0000.0,0008.15,0002.36,0001.65
2021-10-18 05:59:00,,0823.8,5.00,0.00,30.0,29.0,00.0,39.2,31.7,08.5,0000.0,0007.22,0002.22,0001.57
